Sheboygan, WI

5:20 AM CDT on May 24, 2018 (GMT -0500)
Sheboygan County Memorial

Weather History for KSBM - April, 2014

Change the Weather History Date:

Sunday, April 27, 2014

  Actual Average Record
Temperature  
Mean Temperature 41 °F -  
Max Temperature 46 °F 55 °F 84 °F (1962)
Min Temperature 36 °F 40 °F 28 °F (2012)
Degree Days  
Heating Degree Days 24    
Moisture  
Dew Point 32 °F    
Average Humidity 71    
Maximum Humidity 89    
Minimum Humidity 56    
Precipitation  
Precipitation 0.02 in - - ()
Sea Level Pressure  
Sea Level Pressure 30.08 in    
Wind  
Wind Speed 14 mph (ENE)    
Max Wind Speed 22 mph    
Max Gust Speed 29 mph    
Visibility 10 miles    
Events Rain    
Averages and records for this station are not official NWS values.
T = Trace of Precipitation, MM = Missing Value Source: NWS Daily Summary

Daily Weather History Graph

Daily Weather History Graph

Search for Another Location

Airport or City:

Astronomy

Apr. 27, 2014 Rise Set
Actual Time 5:49 AM CDT 7:49 PM CDT
Civil Twilight 5:18 AM CDT 8:20 PM CDT
Nautical Twilight 4:40 AM CDT 8:58 PM CDT
Astronomical Twilight 3:58 AM CDT 9:40 PM CDT
Moon 4:53 AM CDT (4/27) 6:20 PM CDT (4/27)
Length of Visible Light 15h 02m
Length of Day
14h 00m
Waning Crescent, 3% of the Moon is Illuminated
Apr 27
Waning Crescent
Apr 29
New
May 6
First Quarter
May 14
Full
May 21
Last Quarter

Hourly Weather History & Observations

Time (CDT) Temp. Windchill Dew Point Humidity Pressure Visibility Wind Dir Wind Speed Gust Speed Precip Events Conditions
12:53 AM 37.0 °F 27.4 °F 30.9 °F 79% 30.14 in 10.0 mi NE 17.3 mph - N/A   Overcast
1:53 AM 37.0 °F 27.7 °F 30.9 °F 79% 30.12 in 10.0 mi NE 16.1 mph - 0.00 in   Overcast
2:53 AM 37.0 °F 29.3 °F 30.0 °F 76% 30.14 in 10.0 mi ENE 11.5 mph - 0.00 in   Overcast
3:53 AM 36.0 °F 29.6 °F 30.9 °F 82% 30.15 in 10.0 mi ENE 8.1 mph - 0.00 in Rain Light Rain
4:53 AM 36.0 °F 28.5 °F 32.0 °F 86% 30.12 in 10.0 mi East 10.4 mph - 0.02 in   Overcast
5:53 AM 36.0 °F 29.6 °F 33.1 °F 89% 30.13 in 10.0 mi East 8.1 mph - 0.00 in Rain Light Rain
6:53 AM 37.0 °F 30.4 °F 34.0 °F 89% 30.12 in 10.0 mi East 9.2 mph - 0.00 in   Mostly Cloudy
7:53 AM 39.0 °F 31.4 °F 33.1 °F 79% 30.13 in 10.0 mi East 12.7 mph - N/A   Overcast
8:53 AM 39.0 °F 31.0 °F 30.9 °F 73% 30.11 in 10.0 mi ESE 13.8 mph - N/A   Overcast
9:53 AM 39.0 °F 32.8 °F 32.0 °F 76% 30.12 in 10.0 mi East 9.2 mph - N/A   Overcast
10:53 AM 41.0 °F 34.3 °F 30.9 °F 67% 30.11 in 10.0 mi East 11.5 mph - N/A   Overcast
11:53 AM 42.1 °F 34.5 °F 30.0 °F 62% 30.08 in 10.0 mi East 15.0 mph - N/A   Scattered Clouds
12:53 PM 41.0 °F 34.3 °F 32.0 °F 70% 30.10 in 10.0 mi ENE 11.5 mph - 0.00 in   Scattered Clouds
1:53 PM 45.0 °F 38.2 °F 32.0 °F 60% 30.09 in 10.0 mi ENE 15.0 mph - N/A   Partly Cloudy
3:53 PM 46.9 °F - 32.0 °F 56% 30.03 in 10.0 mi NE 17.3 mph - N/A   Clear
4:53 PM 45.0 °F 36.6 °F 32.0 °F 60% 30.00 in 10.0 mi ENE 21.9 mph 28.8 mph N/A   Partly Cloudy
5:53 PM 43.0 °F 35.7 °F 32.0 °F 65% 30.00 in 10.0 mi ENE 15.0 mph - N/A   Clear
6:53 PM 43.0 °F 35.7 °F 30.9 °F 62% 30.00 in 10.0 mi ENE 15.0 mph - N/A   Scattered Clouds
7:53 PM 45.0 °F 39.3 °F 30.9 °F 58% 30.01 in 10.0 mi East 11.5 mph - N/A   Partly Cloudy
8:53 PM 44.1 °F 39.0 °F 32.0 °F 63% 30.04 in 10.0 mi ENE 9.2 mph - N/A   Overcast
9:53 PM 43.0 °F 36.4 °F 33.1 °F 68% 30.03 in 10.0 mi NE 12.7 mph - N/A   Overcast
10:53 PM 42.1 °F 34.2 °F 32.0 °F 67% 30.01 in 10.0 mi ENE 16.1 mph - N/A   Partly Cloudy